Location: Asheville, NC
(35.6000°N, 82.5500°W)
Time: 09:22:05
(UTC-04:00)

Vanguard 3 - Pass Details

Date: 15 March 2018
Orbit: 508 x 3264 km, 33.3° (Epoch: 24 June)

Event Time Altitude Azimuth Distance (km) Brightness Sun altitude
Rises 05:04:13 0° 180° (S) 6,401 11.5 -32.0°
Reaches altitude 10° 05:11:22 10° 161° (SSE) 5,825 11.4 -30.6°
Maximum altitude 05:20:17 15° 131° (SE) 5,673 11.7 -28.9°
Drops below altitude 10° 05:29:34 10° 103° (ESE) 6,181 12.3 -27.2°
Sets 05:37:25 0° 85° (E) 7,014 13.2 -25.6°
